Location: Julian California
(33.0790°N, 116.6010°W)
Time: 03:42:03
(UTC-07:00)

Cosmos 1697 Rocket - Pass Details

Date: 23 March 2019
Orbit: 834 x 842 km, 71.0° (Epoch: 25 April)

Event Time Altitude Azimuth Distance (km) Brightness Sun altitude
Rises 19:46:16 0° 207° (SSW) 3,379 6.1 -10.4°
Reaches altitude 10° 19:48:44 10° 211° (SSW) 2,447 5.4 -11.0°
Maximum altitude 19:54:18 63° 292° (WNW) 930 3.2 -12.1°
Drops below altitude 10° 19:59:53 10° 14° (NNE) 2,457 5.1 -13.3°
Sets 20:02:22 0° 17° (NNE) 3,394 5.8 -13.8°
